Theta_e
325 327 328 328 331 330 330 333 332 352 350 347 346 346 348 349 347 341 340 343 344 347 349 349 343 343 342 344 338 338 334 334
326 328 329 328 331 330 328 336 336 356 354 357 349 344 344 343 344 344 344 344 345 344 347 350 346 345 342 342 338 339 339 337
326 325 328 331 332 331 328 331 333 353 354 348 344 342 340 341 342 343 345 351 348 347 347 349 348 348 346 345 341 340 340 340
331 331 330 332 331 330 329 331 335 347 352 342 340 338 338 340 341 342 343 347 348 349 349 349 347 349 348 348 347 349 347 344
329 329 327 328 328 328 327 327 331 341 351 340 339 338 338 339 339 340 340 342 344 344 347 346 339 347 348 348 347 348 348 349
331 328 325 326 326 325 326 327 339 347 347 342 340 337 336 336 337 338 337 339 340 342 342 342 344 346 345 347 341 347 349 348
326 327 327 325 325 326 327 339 345 344 345 343 338 335 334 333 334 334 333 333 336 341 342 342 343 345 344 342 345 341 347 351
328 327 323 323 325 326 326 338 340 341 343 338 337 335 335 333 332 332 332 330 328 329 332 336 336 339 341 342 344 342 342 340
326 323 322 325 325 323 326 337 339 342 339 338 336 332 330 329 328 328 327 327 326 325 325 327 328 334 335 336 337 342 340 341
324 323 325 323 320 321 323 338 336 336 335 334 330 328 327 326 325 324 324 325 324 323 322 324 326 327 331 331 331 335 335 337
322 320 323 322 321 321 329 338 335 335 332 329 328 326 325 325 325 323 321 322 323 323 322 322 323 324 326 328 329 329 328 328
323 325 324 323 320 318 321 337 334 329 328 327 326 325 322 322 321 320 320 320 320 321 321 321 321 322 323 323 324 322 322 325
321 323 325 322 319 318 322 328 331 328 327 326 323 325 322 320 320 319 319 318 318 319 319 318 318 319 319 320 320 318 316 314
320 323 326 324 323 326 325 322 324 325 324 322 321 321 320 320 318 318 318 317 318 318 318 318 318 318 319 319 319 317 315 314
326 325 323 322 322 321 320 320 320 322 321 321 321 320 319 318 317 318 318 317 318 318 319 318 318 316 315 315 314 314 313 312
323 324 322 321 320 320 320 318 318 318 317 317 317 317 317 317 317 317 317 316 315 316 315 315 314 312 311 311 311 311 310 310
319 321 320 320 320 319 318 319 317 317 316 316 316 316 317 317 317 316 315 314 313 313 313 313 311 309 308 308 308 307 308 308
320 320 319 320 318 317 317 316 316 315 315 314 314 315 316 316 315 314 313 313 313 312 312 310 310 309 307 305 306 305 305 306
320 318 318 318 317 318 317 315 314 314 313 313 313 315 314 314 313 313 311 311 311 311 310 309 308 307 305 306 304 303 304 305
Wind_Speed
16 7 5 8 8 9 6 7 3 6 4 9 7 9 21 20 22 27 31 38 42 32 24 20 37 34 27 28 25 26 28 28
16 10 11 10 3 8 2 2 4 5 6 10 12 11 12 12 12 9 17 34 33 45 29 19 30 39 30 28 27 25 26 25
12 10 13 3 1 3 2 3 4 5 2 4 12 12 11 11 9 9 9 16 28 31 26 13 14 25 37 32 28 25 24 23
6 5 6 4 7 4 4 8 1 4 2 10 11 16 15 11 12 11 12 14 19 27 24 21 22 9 27 21 26 26 24 24
6 4 9 4 5 4 4 2 5 5 6 10 20 20 12 10 12 16 14 15 19 20 20 24 26 13 14 14 11 22 24 22
2 4 3 4 9 8 3 1 3 6 12 15 15 15 18 13 14 17 18 19 23 22 19 18 22 25 8 13 27 11 21 25
11 10 13 16 8 11 5 6 5 10 13 15 17 16 21 20 18 19 20 21 20 20 18 16 13 11 13 13 14 12 10 22
7 11 13 13 13 15 3 12 11 13 14 17 27 29 24 24 21 20 20 22 22 24 22 16 10 7 8 8 9 4 2 4
5 8 10 5 4 5 9 14 19 11 10 26 18 25 25 25 24 22 23 23 23 23 24 23 23 18 20 14 5 8 7 8
5 8 4 3 9 9 7 17 21 22 18 13 23 31 31 27 25 22 21 20 20 22 20 18 19 21 21 21 18 16 7 2
2 3 4 15 14 10 5 9 19 20 21 31 30 33 27 23 21 20 19 18 15 12 17 16 17 17 16 13 11 14 14 11
1 2 3 2 9 23 6 6 21 26 30 30 27 9 7 22 20 17 15 15 14 12 9 9 11 11 10 6 3 5 6 6
1 2 3 4 12 19 6 3 18 33 30 25 7 17 28 24 19 14 11 12 10 7 9 6 4 3 3 1 1 2 2 1
3 2 2 17 10 5 1 23 28 32 35 34 34 31 24 20 16 13 13 12 9 7 5 4 3 3 2 2 5 8 8 7
3 3 7 22 19 17 19 20 23 27 27 27 25 21 19 18 14 14 13 12 11 7 5 4 4 4 3 4 8 10 11 9
4 3 12 13 11 12 9 12 13 13 15 14 18 17 15 15 12 12 11 9 6 6 3 5 5 4 4 6 8 10 10 8
2 7 11 10 9 6 5 6 6 8 11 8 12 12 17 16 14 11 8 4 4 5 4 4 4 4 4 5 6 6 6 6
2 8 8 8 13 11 11 6 4 9 8 9 8 13 15 15 10 8 7 7 6 4 5 3 1 6 6 4 7 8 9 11
8 11 8 5 3 12 16 14 9 11 11 10 7 11 11 13 12 10 8 8 9 9 7 6 4 4 7 8 10 11 11 11
Wind_Direction
239 226 224 267 253 229 252 285 171 106 57 69 136 91 182 195 184 174 203 202 224 222 210 231 204 205 209 203 200 199 198 202
233 188 227 222 269 252 325 230 230 116 173 143 147 123 97 96 121 144 206 230 227 212 221 228 199 204 208 203 198 197 196 198
260 197 210 202 220 334 155 188 179 140 63 18 129 110 100 90 106 110 130 153 201 209 209 205 187 208 204 207 199 201 207 203
275 319 306 187 176 217 147 284 51 96 136 102 92 97 110 108 114 112 107 127 136 188 199 210 203 182 191 204 201 212 212 214
328 336 269 258 248 219 255 288 252 133 134 126 121 120 110 114 106 109 110 132 146 146 151 183 199 198 198 165 198 207 214 217
250 261 307 246 260 265 239 24 59 75 132 141 127 119 125 128 117 109 103 111 126 131 158 154 174 200 221 190 191 225 211 209
283 286 291 286 220 241 234 151 109 148 136 145 136 132 138 132 115 107 97 93 99 113 121 137 139 152 196 177 158 203 238 202
314 265 290 302 206 232 194 126 125 119 117 134 128 135 139 130 120 111 110 99 89 91 95 104 114 153 168 155 182 191 350 143
285 294 297 76 302 76 58 99 123 122 143 132 139 124 117 114 112 111 108 106 102 95 91 91 84 89 87 86 110 205 289 275
283 324 27 331 2 9 57 115 108 124 132 120 120 116 120 120 117 111 108 108 105 101 94 98 97 86 83 79 77 85 106 141
222 329 341 15 9 9 69 104 129 130 127 125 116 108 106 116 121 115 112 106 105 109 104 96 102 97 90 101 106 106 103 87
55 21 9 332 358 349 355 124 134 127 125 127 123 118 129 126 124 124 128 113 106 108 108 108 104 118 124 101 122 87 82 81
169 144 109 32 15 344 56 275 146 139 139 135 107 155 141 137 131 123 119 116 115 104 100 98 117 123 143 240 334 324 322 303
336 212 155 347 37 74 88 55 85 99 113 109 115 121 128 130 124 132 125 121 116 127 130 155 198 201 221 272 293 280 281 282
75 107 96 64 76 73 75 74 79 96 110 118 123 127 133 134 143 150 152 151 143 122 161 210 252 268 271 293 289 296 301 299
74 103 100 93 91 86 75 82 86 102 101 110 128 135 130 141 144 159 162 173 176 176 190 251 270 271 254 270 290 308 319 321
74 134 136 151 152 160 97 125 128 118 124 117 134 137 146 141 142 138 153 201 211 188 169 255 315 299 299 314 321 340 355 349
120 27 62 166 159 166 179 169 148 162 150 146 149 154 159 161 163 146 160 160 163 158 208 289 17 300 327 346 0 6 12 17
31 19 32 38 96 195 181 180 189 192 196 185 173 186 178 180 193 180 167 176 189 202 226 216 242 337 354 8 18 22 21 20